Weather reports worldwide

Advertisment
Albacete/Los Llanos, Spain (8280): temperature & dewpoint: 09.12.2019 18:00:00 - 15.12.2019 18:00:00 (CET)Albacete/Los Llanos, Spain (8280): wind speed: 09.12.2019 18:00:00 - 15.12.2019 18:00:00 (CET)Albacete/Los Llanos, Spain (8280): wind direction: 09.12.2019 18:00:00 - 15.12.2019 18:00:00 (CET)Albacete/Los Llanos, Spain (8280): reduced air pressure: 09.12.2019 18:00:00 - 15.12.2019 18:00:00 (CET)Albacete/Los Llanos, Spain (8280): visibility: 09.12.2019 18:00:00 - 15.12.2019 18:00:00 (CET)
Date & Time tt [°C] td [°C] ff [km/h] ff [kn] dd ppp [hPa] vv [km]
15.12.2019 18:00:00 - - - - - - -
15.12.2019 17:00:00 - - - - - - -
15.12.2019 16:00:00 13,1 4,8 9 5 NW 1014,1 40
15.12.2019 15:00:00 - - - - - - -
15.12.2019 14:00:00 - - - - - - -
15.12.2019 13:00:00 11,9 4,6 26 14 WNW 1016,6 30
15.12.2019 12:00:00 - - - - - - -
15.12.2019 11:00:00 - - - - - - -
15.12.2019 10:00:00 8,4 4,0 11 6 W 1018,7 30
15.12.2019 09:00:00 - - - - - - -
15.12.2019 08:00:00 - - - - - - -
15.12.2019 07:00:00 8,0 4,4 13 7 WNW 1018,1 30
15.12.2019 06:00:00 - - - - - - -
15.12.2019 05:00:00 - - - - - - -
15.12.2019 04:00:00 8,3 4,3 15 8 W 1019,0 30
15.12.2019 03:00:00 - - - - - - -
15.12.2019 02:00:00 - - - - - - -
15.12.2019 01:00:00 8,8 4,2 16 9 W 1019,9 30
15.12.2019 00:00:00 - - - - - - -
14.12.2019 23:00:00 - - - - - - -
14.12.2019 22:00:00 8,9 4,7 16 9 WNW 1020,3 30
14.12.2019 21:00:00 - - - - - - -
14.12.2019 20:00:00 - - - - - - -
14.12.2019 19:00:00 8,6 4,0 28 15 WNW 1020,5 20
14.12.2019 18:00:00 - - - - - - -
14.12.2019 17:00:00 - - - - - - -
14.12.2019 16:00:00 10,1 4,7 26 14 WNW 1019,4 25
14.12.2019 15:00:00 - - - - - - -
14.12.2019 14:00:00 - - - - - - -
14.12.2019 13:00:00 10,2 5,8 26 14 WNW 1020,4 30
14.12.2019 12:00:00 - - - - - - -
14.12.2019 11:00:00 - - - - - - -
14.12.2019 10:00:00 9,7 6,2 28 15 WNW 1020,5 30
14.12.2019 09:00:00 - - - - - - -
14.12.2019 08:00:00 - - - - - - -
14.12.2019 07:00:00 9,8 6,3 22 12 WNW 1019,6 30
14.12.2019 06:00:00 - - - - - - -
14.12.2019 05:00:00 - - - - - - -
14.12.2019 04:00:00 9,9 6,2 26 14 WNW 1019,8 30
14.12.2019 03:00:00 - - - - - - -
14.12.2019 02:00:00 - - - - - - -
14.12.2019 01:00:00 10,4 6,9 35 19 W 1019,4 30
14.12.2019 00:00:00 - - - - - - -
13.12.2019 23:00:00 - - - - - - -
13.12.2019 22:00:00 10,6 7,5 31 17 W 1018,9 30
13.12.2019 21:00:00 - - - - - - -
13.12.2019 20:00:00 - - - - - - -
13.12.2019 19:00:00 11,4 7,7 31 17 W 1017,2 50
13.12.2019 18:00:00 - - - - - - -
13.12.2019 17:00:00 - - - - - - -
13.12.2019 16:00:00 14,0 7,8 46 25 W 1014,8 40
13.12.2019 15:00:00 - - - - - - -
13.12.2019 14:00:00 - - - - - - -
13.12.2019 13:00:00 12,6 7,1 52 28 W 1015,8 40
13.12.2019 12:00:00 - - - - - - -
13.12.2019 11:00:00 - - - - - - -
13.12.2019 10:00:00 11,5 7,8 44 24 W 1014,5 40
13.12.2019 09:00:00 - - - - - - -
13.12.2019 08:00:00 - - - - - - -
13.12.2019 07:00:00 11,2 8,9 42 23 W 1013,0 50
13.12.2019 06:00:00 - - - - - - -
13.12.2019 05:00:00 - - - - - - -
13.12.2019 04:00:00 9,9 8,0 35 19 W 1013,7 40
13.12.2019 03:00:00 - - - - - - -
13.12.2019 02:00:00 - - - - - - -
13.12.2019 01:00:00 9,0 7,0 48 26 W 1014,5 40
13.12.2019 00:00:00 - - - - - - -
12.12.2019 23:00:00 - - - - - - -
12.12.2019 22:00:00 8,0 5,5 37 20 W 1015,8 40
12.12.2019 21:00:00 - - - - - - -
12.12.2019 20:00:00 - - - - - - -
12.12.2019 19:00:00 - - - - - - -
12.12.2019 18:00:00 - - - - - - -
12.12.2019 17:00:00 - - - - - - -
12.12.2019 16:00:00 8,7 3,9 46 25 W 1018,5 30
12.12.2019 15:00:00 - - - - - - -
12.12.2019 14:00:00 - - - - - - -
12.12.2019 13:00:00 7,6 3,1 35 19 W 1021,6 30
12.12.2019 12:00:00 - - - - - - -
12.12.2019 11:00:00 - - - - - - -
12.12.2019 10:00:00 4,8 3,1 18 10 W 1024,0 20
12.12.2019 09:00:00 - - - - - - -
12.12.2019 08:00:00 - - - - - - -
12.12.2019 07:00:00 2,8 2,2 11 6 NW 1025,0 20
12.12.2019 06:00:00 - - - - - - -
12.12.2019 05:00:00 - - - - - - -
12.12.2019 04:00:00 3,7 2,5 18 10 W 1026,0 30
12.12.2019 03:00:00 - - - - - - -
12.12.2019 02:00:00 - - - - - - -
12.12.2019 01:00:00 1,3 0,9 5 3 S 1028,1 20
12.12.2019 00:00:00 - - - - - - -
11.12.2019 23:00:00 - - - - - - -
11.12.2019 22:00:00 4,4 2,8 13 7 W 1026,9 20
11.12.2019 21:00:00 - - - - - - -
11.12.2019 20:00:00 - - - - - - -
11.12.2019 19:00:00 6,2 4,5 18 10 WNW 1025,3 25
11.12.2019 18:00:00 - - - - - - -
11.12.2019 17:00:00 - - - - - - -
11.12.2019 16:00:00 9,3 4,9 31 17 WNW 1021,7 25
11.12.2019 15:00:00 - - - - - - -
11.12.2019 14:00:00 - - - - - - -
11.12.2019 13:00:00 11,8 2,8 18 10 W 1021,1 25
11.12.2019 12:00:00 - - - - - - -
11.12.2019 11:00:00 - - - - - - -
11.12.2019 10:00:00 2,4 0,3 2 1 ENE 1025,8 25
11.12.2019 09:00:00 - - - - - - -
11.12.2019 08:00:00 - - - - - - -
11.12.2019 07:00:00 -1,9 -2,5 4 2 NE 1026,9 25
11.12.2019 06:00:00 - - - - - - -
11.12.2019 05:00:00 - - - - - - -
11.12.2019 04:00:00 -1,1 -1,9 4 2 ESE 1028,2 20
11.12.2019 03:00:00 - - - - - - -
11.12.2019 02:00:00 - - - - - - -
11.12.2019 01:00:00 -0,5 -1,1 5 3 SE 1029,0 15
11.12.2019 00:00:00 - - - - - - -
10.12.2019 23:00:00 - - - - - - -
10.12.2019 22:00:00 1,3 0,6 5 3 S 1029,1 10
10.12.2019 21:00:00 - - - - - - -
10.12.2019 20:00:00 - - - - - - -
10.12.2019 19:00:00 4,7 3,2 5 3 N 1027,7 30
10.12.2019 18:00:00 - - - - - - -
10.12.2019 17:00:00 - - - - - - -
10.12.2019 16:00:00 11,8 4,5 16 9 WNW 1025,9 30
10.12.2019 15:00:00 - - - - - - -
10.12.2019 14:00:00 - - - - - - -
10.12.2019 13:00:00 8,1 3,6 13 7 W 1029,3 25
10.12.2019 12:00:00 - - - - - - -
10.12.2019 11:00:00 - - - - - - -
10.12.2019 10:00:00 3,3 2,4 4 2 NE 1031,9 3,0
10.12.2019 09:00:00 - - - - - - -
10.12.2019 08:00:00 - - - - - - -
10.12.2019 07:00:00 1,7 0,2 9 5 W 1031,8 20
10.12.2019 06:00:00 - - - - - - -
10.12.2019 05:00:00 - - - - - - -
10.12.2019 04:00:00 1,1 0,7 4 2 SSW 1032,6 15
10.12.2019 03:00:00 - - - - - - -
10.12.2019 02:00:00 - - - - - - -
10.12.2019 01:00:00 4,7 4,3 11 6 WNW 1032,0 10
10.12.2019 00:00:00 - - - - - - -
09.12.2019 23:00:00 - - - - - - -
09.12.2019 22:00:00 6,6 5,4 16 9 WNW 1031,2 20
09.12.2019 21:00:00 - - - - - - -
09.12.2019 20:00:00 - - - - - - -
09.12.2019 19:00:00 7,4 5,0 8 4 NNW 1029,9 20
09.12.2019 18:00:00 - - - - - - -

tt = temperature
td = dewpoint
ff = wind speed
dd = wind direction
ppp = reduced air pressure
vv = visibility

Next stations